This is the latest recevied weather packets stored in our database for station/object K4IR. If no packets are shown the sender has not sent any weather packets the latest 10 day(s).
| Time | Temp. | Humidity | Pressure | Rain* | Wind** | Luminosity | Snow |
|---|---|---|---|---|---|---|---|
| 1788189555 | 28.89° C | 77% | 1020.1 hPa | 0 mm | - | 61 W/m² | - |
| 1788188955 | 28.89° C | 78% | 1020.2 hPa | 0 mm | - | 82 W/m² | - |
| 1788188355 | 28.33° C | 79% | 1019.8 hPa | 0 mm | - | 45 W/m² | - |
| 1788187754 | 28.33° C | 82% | 1020 hPa | 0 mm | - | 61 W/m² | - |
| 1788187149 | 27.78° C | 85% | 1019.9 hPa | 0 mm | - | 132 W/m² | - |
| 1788186546 | 26.67° C | 88% | 1020 hPa | 0 mm | - | 68 W/m² | - |
| 1788185942 | 26.11° C | 94% | 1020 hPa | 0 mm | - | 231 W/m² | - |
| 1788185337 | 25.56° C | 97% | 1019.9 hPa | 0 mm | - | 556 W/m² | - |
| 1788184736 | 25° C | 99% | 1019.9 hPa | 0 mm | - | 450 W/m² | - |
| 1788184132 | 25° C | 99% | 1019.8 hPa | 0 mm | - | 173 W/m² | - |
| 1788183527 | 25° C | 99% | 1019.8 hPa | 0 mm | - | 49 W/m² | - |
| 1788182923 | 24.44° C | 99% | 1020 hPa | 0 mm | - | 96 W/m² | - |
| 1788182324 | 24.44° C | 99% | 1019.8 hPa | 0 mm | - | 106 W/m² | - |
| 1788181721 | 24.44° C | 99% | 1019.9 hPa | 0 mm | - | 112 W/m² | - |
| 1788181115 | 23.89° C | 99% | 1020 hPa | 0 mm | - | 102 W/m² | - |
| 1788180511 | 23.89° C | 99% | 1019.8 hPa | 0 mm | - | 56 W/m² | - |
| 1788179907 | 23.89° C | 99% | 1019.8 hPa | 0 mm | - | 51 W/m² | - |
| 1788179307 | 23.89° C | 99% | 1019.8 hPa | 0 mm | - | 57 W/m² | - |
| 1788178702 | 23.89° C | 99% | 1019.7 hPa | 0 mm | - | 41 W/m² | - |
| 1788178100 | 23.33° C | 99% | 1019.5 hPa | 0 mm | - | 46 W/m² | - |
| 1788177495 | 23.33° C | 99% | 1019.6 hPa | 0 mm | - | 49 W/m² | - |
| 1788176890 | 23.33° C | 99% | 1019.5 hPa | 0 mm | - | 39 W/m² | - |
| 1788176286 | 23.33° C | 99% | 1019.5 hPa | 0 mm | - | 27 W/m² | - |
| 1788175686 | 23.33° C | 99% | 1019.6 hPa | 0 mm | - | 20 W/m² | - |
| 1788175082 | 22.78° C | 99% | 1019.4 hPa | 0 mm | - | 15 W/m² | - |
* Rain latest hour (hover to see other rain measurements)
** Current wind speed in m/s (hover to see current wind gust speed)